{"data":{"norad_id":45201,"epoch":"2026-09-20T02:28:44.522112Z","epoch_age_seconds":48531,"freshness":"FRESH","line1":"1 45201U 20012Z   26263.10329308  .00058014  00000+0  12698-2 0  9997","line2":"2 45201  53.1509 193.0348 0001744 106.4213 253.6985 15.43597256365030","mean_motion":15.43597256,"eccentricity":0.0001744,"inclination_deg":53.1509,"raan_deg":193.0348,"arg_perigee_deg":106.4213,"mean_anomaly_deg":253.6985,"bstar":0.0012698,"rev_number":36503,"period_min":93.288582523886,"perigee_km":434.31457996484,"apogee_km":436.69117755455,"semimajor_km":6813.6398787597,"source":"CELESTRAK","updated_at":"2026-09-20T09:00:38.227041Z"}}